Time,TemperatureF,DewpointF,PressureIn,WindDirection,WindDirectionDegrees,WindSpeedMPH,WindSpeedGustMPH,Humidity,HourlyPrecipIn,Conditions,Clouds,dailyrainin,SolarRadiationWatts/m^2,SoftwareType,DateUTC
2013-03-21 00:10:00,46.9,46.0,30.13,North,360,0.0,0.0,96,0.01,,,0.00,0,weatherlink.com 1.10,2013-03-21 07:10:00,
2013-03-21 00:25:00,46.3,45.0,30.13,North,-999,0.0,0.0,96,0.00,,,0.00,0,weatherlink.com 1.10,2013-03-21 07:25:00,
2013-03-21 00:40:00,45.7,45.0,30.13,North,-999,0.0,0.0,96,0.00,,,0.00,0,weatherlink.com 1.10,2013-03-21 07:40:00,
2013-03-21 00:55:00,45.2,44.0,30.12,North,-999,0.0,0.0,96,0.00,,,0.00,0,weatherlink.com 1.10,2013-03-21 07:55:00,
2013-03-21 01:10:00,45.1,44.0,30.12,North,-999,0.0,0.0,96,0.00,,,0.00,0,weatherlink.com 1.10,2013-03-21 08:10:00,
2013-03-21 01:25:00,45.0,44.0,30.12,North,360,0.0,0.0,96,0.00,,,0.00,0,weatherlink.com 1.10,2013-03-21 08:25:00,
2013-03-21 01:40:00,44.7,44.0,30.12,North,360,0.0,0.0,96,0.00,,,0.00,0,weatherlink.com 1.10,2013-03-21 08:40:00,
2013-03-21 01:55:00,44.2,43.0,30.11,North,360,0.0,0.0,96,0.00,,,0.00,0,weatherlink.com 1.10,2013-03-21 08:55:00,
2013-03-21 02:10:00,43.8,43.0,30.12,North,360,0.0,0.0,95,0.00,,,0.00,0,weatherlink.com 1.10,2013-03-21 09:10:00,
2013-03-21 02:25:00,43.4,42.0,30.11,North,360,0.0,0.0,95,0.00,,,0.00,0,weatherlink.com 1.10,2013-03-21 09:25:00,
2013-03-21 02:40:00,43.0,42.0,30.11,North,360,0.0,0.0,95,0.00,,,0.00,0,weatherlink.com 1.10,2013-03-21 09:40:00,
2013-03-21 02:55:00,42.8,42.0,30.11,North,360,0.0,0.0,95,0.00,,,0.00,0,weatherlink.com 1.10,2013-03-21 09:55:00,
2013-03-21 03:10:00,42.9,41.0,30.11,North,-999,0.0,0.0,94,0.00,,,0.00,0,weatherlink.com 1.10,2013-03-21 10:10:00,
2013-03-21 03:25:00,42.8,41.0,30.11,North,360,0.0,0.0,94,0.00,,,0.00,0,weatherlink.com 1.10,2013-03-21 10:25:00,
2013-03-21 03:40:00,42.7,41.0,30.11,North,-999,0.0,0.0,95,0.00,,,0.00,0,weatherlink.com 1.10,2013-03-21 10:40:00,
2013-03-21 03:55:00,42.6,41.0,30.11,North,-999,0.0,0.0,95,0.00,,,0.00,0,weatherlink.com 1.10,2013-03-21 10:55:00,
2013-03-21 04:10:00,42.3,41.0,30.11,North,-999,0.0,0.0,94,0.00,,,0.00,0,weatherlink.com 1.10,2013-03-21 11:10:00,
2013-03-21 04:25:00,42.0,40.0,30.11,North,-999,0.0,0.0,94,0.00,,,0.00,0,weatherlink.com 1.10,2013-03-21 11:25:00,
2013-03-21 04:40:00,42.0,40.0,30.11,North,-999,0.0,0.0,94,0.00,,,0.00,0,weatherlink.com 1.10,2013-03-21 11:40:00,
2013-03-21 04:55:00,41.6,40.0,30.10,North,-999,0.0,0.0,94,0.00,,,0.00,0,weatherlink.com 1.10,2013-03-21 11:55:00,
2013-03-21 05:10:00,41.4,40.0,30.10,North,-999,0.0,0.0,94,0.00,,,0.00,0,weatherlink.com 1.10,2013-03-21 12:10:00,
2013-03-21 05:25:00,41.6,40.0,30.09,North,-999,0.0,0.0,93,0.00,,,0.00,0,weatherlink.com 1.10,2013-03-21 12:25:00,
2013-03-21 05:40:00,41.5,40.0,30.09,North,-999,0.0,0.0,93,0.00,,,0.00,0,weatherlink.com 1.10,2013-03-21 12:40:00,
2013-03-21 05:55:00,41.5,39.0,30.08,North,-999,0.0,0.0,92,0.00,,,0.00,0,weatherlink.com 1.10,2013-03-21 12:55:00,
2013-03-21 06:10:00,41.8,40.0,30.08,North,-999,0.0,0.0,92,0.00,,,0.00,0,weatherlink.com 1.10,2013-03-21 13:10:00,
2013-03-21 06:25:00,41.8,40.0,30.10,North,-999,0.0,0.0,92,0.00,,,0.00,0,weatherlink.com 1.10,2013-03-21 13:25:00,
2013-03-21 06:40:00,41.2,39.0,30.10,North,-999,0.0,0.0,92,0.00,,,0.00,0,weatherlink.com 1.10,2013-03-21 13:40:00,
2013-03-21 06:55:00,40.8,39.0,30.09,North,-999,0.0,0.0,93,0.00,,,0.00,0,weatherlink.com 1.10,2013-03-21 13:55:00,
2013-03-21 07:10:00,40.5,39.0,30.09,North,-999,0.0,0.0,93,0.00,,,0.00,0,weatherlink.com 1.10,2013-03-21 14:10:00,
2013-03-21 07:25:00,40.6,39.0,30.09,North,-999,0.0,0.0,94,0.00,,,0.00,11,weatherlink.com 1.10,2013-03-21 14:25:00,
2013-03-21 07:40:00,40.9,39.0,30.10,North,-999,0.0,0.0,94,0.00,,,0.00,19,weatherlink.com 1.10,2013-03-21 14:40:00,
2013-03-21 07:55:00,41.1,40.0,30.10,North,-999,0.0,0.0,95,0.00,,,0.00,28,weatherlink.com 1.10,2013-03-21 14:55:00,
2013-03-21 08:10:00,41.6,40.0,30.10,North,-999,0.0,0.0,95,0.00,,,0.00,33,weatherlink.com 1.10,2013-03-21 15:10:00,
2013-03-21 08:25:00,42.7,41.0,30.10,North,360,0.0,0.0,95,0.00,,,0.00,93,weatherlink.com 1.10,2013-03-21 15:25:00,
2013-03-21 08:40:00,43.7,42.0,30.10,North,360,0.0,0.0,93,0.00,,,0.00,179,weatherlink.com 1.10,2013-03-21 15:40:00,
2013-03-21 08:56:00,44.7,42.0,30.10,North,360,0.0,0.0,91,0.00,,,0.00,181,weatherlink.com 1.10,2013-03-21 15:56:00,
2013-03-21 09:11:00,45.9,43.0,30.10,North,360,0.0,0.0,88,0.00,,,0.00,214,weatherlink.com 1.10,2013-03-21 16:11:00,
2013-03-21 09:26:00,47.3,43.0,30.11,North,360,0.0,0.0,86,0.00,,,0.00,309,weatherlink.com 1.10,2013-03-21 16:26:00,
2013-03-21 09:41:00,47.7,43.0,30.11,North,360,0.0,0.0,82,0.00,,,0.00,415,weatherlink.com 1.10,2013-03-21 16:41:00,
2013-03-21 09:56:00,48.9,43.0,30.11,North,-999,0.0,0.0,81,0.00,,,0.00,519,weatherlink.com 1.10,2013-03-21 16:56:00,
2013-03-21 10:26:00,50.8,43.0,30.11,North,360,0.0,0.0,75,0.00,,,0.00,599,weatherlink.com 1.10,2013-03-21 17:26:00,
2013-03-21 11:11:00,52.4,45.0,30.12,North,-999,0.0,0.0,75,0.00,,,0.00,707,weatherlink.com 1.10,2013-03-21 18:11:00,
2013-03-21 11:26:00,52.4,45.0,30.12,North,-999,0.0,0.0,75,0.00,,,0.00,737,weatherlink.com 1.10,2013-03-21 18:26:00,
2013-03-21 11:41:00,52.9,45.0,30.12,North,-999,0.0,0.0,75,0.00,,,0.00,756,weatherlink.com 1.10,2013-03-21 18:41:00,
2013-03-21 11:56:00,53.3,44.0,30.12,North,-999,0.0,0.0,72,0.00,,,0.00,780,weatherlink.com 1.10,2013-03-21 18:56:00,
2013-03-21 12:11:00,53.6,45.0,30.11,North,-999,0.0,0.0,72,0.00,,,0.00,798,weatherlink.com 1.10,2013-03-21 19:11:00,
2013-03-21 12:26:00,54.6,45.0,30.11,North,-999,0.0,0.0,70,0.00,,,0.00,810,weatherlink.com 1.10,2013-03-21 19:26:00,
2013-03-21 12:41:00,55.3,45.0,30.11,North,-999,0.0,0.0,69,0.00,,,0.00,821,weatherlink.com 1.10,2013-03-21 19:41:00,
2013-03-21 12:56:00,55.6,45.0,30.11,North,360,0.0,0.0,67,0.00,,,0.00,821,weatherlink.com 1.10,2013-03-21 19:56:00,
2013-03-21 13:11:00,55.3,44.0,30.11,North,-999,0.0,0.0,67,0.00,,,0.00,826,weatherlink.com 1.10,2013-03-21 20:11:00,
2013-03-21 13:26:00,55.2,44.0,30.10,North,-999,0.0,0.0,67,0.00,,,0.00,824,weatherlink.com 1.10,2013-03-21 20:26:00,
2013-03-21 13:56:00,55.3,44.0,30.09,North,-999,0.0,0.0,65,0.00,,,0.00,805,weatherlink.com 1.10,2013-03-21 20:56:00,
2013-03-21 14:11:00,55.3,44.0,30.08,North,-999,0.0,0.0,65,0.00,,,0.00,65,weatherlink.com 1.10,2013-03-21 21:11:00,
2013-03-21 14:26:00,53.8,43.0,30.08,North,360,0.0,0.0,68,0.00,,,0.00,51,weatherlink.com 1.10,2013-03-21 21:26:00,
2013-03-21 14:56:00,52.9,43.0,30.07,North,-999,0.0,0.0,69,0.00,,,0.00,130,weatherlink.com 1.10,2013-03-21 21:56:00,
2013-03-21 15:11:00,52.6,42.0,30.06,North,-999,0.0,0.0,68,0.00,,,0.00,37,weatherlink.com 1.10,2013-03-21 22:11:00,
2013-03-21 15:27:00,52.5,43.0,30.06,North,360,0.0,0.0,71,0.00,,,0.00,42,weatherlink.com 1.10,2013-03-21 22:27:00,
2013-03-21 15:42:00,52.6,43.0,30.05,North,-999,0.0,0.0,71,0.00,,,0.00,35,weatherlink.com 1.10,2013-03-21 22:42:00,
2013-03-21 15:57:00,52.4,44.0,30.05,North,-999,0.0,0.0,73,0.00,,,0.00,33,weatherlink.com 1.10,2013-03-21 22:57:00,
2013-03-21 16:12:00,52.4,44.0,30.05,North,-999,0.0,0.0,73,0.00,,,0.00,32,weatherlink.com 1.10,2013-03-21 23:12:00,
2013-03-21 16:27:00,52.3,44.0,30.05,North,-999,0.0,0.0,73,0.00,,,0.00,32,weatherlink.com 1.10,2013-03-21 23:27:00,
2013-03-21 16:42:00,52.1,44.0,30.05,North,-999,0.0,0.0,74,0.00,,,0.00,81,weatherlink.com 1.10,2013-03-21 23:42:00,
2013-03-21 16:57:00,51.7,44.0,30.04,North,-999,0.0,0.0,74,0.00,,,0.00,32,weatherlink.com 1.10,2013-03-21 23:57:00,
2013-03-21 17:12:00,51.5,44.0,30.04,North,360,0.0,0.0,76,0.00,,,0.00,30,weatherlink.com 1.10,2013-03-22 00:12:00,
2013-03-21 17:27:00,51.1,44.0,30.04,North,360,0.0,0.0,76,0.00,,,0.00,28,weatherlink.com 1.10,2013-03-22 00:27:00,
2013-03-21 17:42:00,50.8,44.0,30.03,North,360,0.0,0.0,78,0.00,,,0.00,25,weatherlink.com 1.10,2013-03-22 00:42:00,
2013-03-21 17:57:00,50.6,44.0,30.03,North,-999,0.0,0.0,78,0.00,,,0.00,23,weatherlink.com 1.10,2013-03-22 00:57:00,
2013-03-21 18:12:00,50.3,44.0,30.03,North,-999,0.0,0.0,79,0.00,,,0.00,21,weatherlink.com 1.10,2013-03-22 01:12:00,
2013-03-21 18:27:00,49.7,44.0,30.03,North,-999,0.0,0.0,80,0.00,,,0.00,18,weatherlink.com 1.10,2013-03-22 01:27:00,
2013-03-21 18:42:00,49.3,44.0,30.03,North,-999,0.0,0.0,82,0.00,,,0.00,14,weatherlink.com 1.10,2013-03-22 01:42:00,
2013-03-21 18:57:00,48.8,44.0,30.03,North,-999,0.0,0.0,83,0.00,,,0.00,11,weatherlink.com 1.10,2013-03-22 01:57:00,
2013-03-21 19:12:00,48.5,44.0,30.02,North,-999,0.0,0.0,84,0.00,,,0.00,7,weatherlink.com 1.10,2013-03-22 02:12:00,
2013-03-21 19:27:00,48.0,44.0,30.02,North,-999,0.0,0.0,85,0.00,,,0.00,0,weatherlink.com 1.10,2013-03-22 02:27:00,
2013-03-21 19:42:00,47.7,43.0,30.02,North,360,0.0,0.0,85,0.00,,,0.00,0,weatherlink.com 1.10,2013-03-22 02:42:00,
2013-03-21 19:57:00,47.4,43.0,30.02,North,360,0.0,0.0,86,0.00,,,0.00,0,weatherlink.com 1.10,2013-03-22 02:57:00,
2013-03-21 20:12:00,47.2,44.0,30.03,North,360,0.0,0.0,87,0.00,,,0.00,0,weatherlink.com 1.10,2013-03-22 03:12:00,
2013-03-21 20:27:00,47.0,43.0,30.02,North,-999,0.0,0.0,87,0.00,,,0.00,0,weatherlink.com 1.10,2013-03-22 03:27:00,
2013-03-21 20:42:00,46.8,43.0,30.03,North,-999,0.0,0.0,87,0.00,,,0.00,0,weatherlink.com 1.10,2013-03-22 03:42:00,
2013-03-21 20:57:00,46.5,43.0,30.03,North,-999,0.0,0.0,87,0.00,,,0.00,0,weatherlink.com 1.10,2013-03-22 03:57:00,
2013-03-21 21:12:00,46.3,43.0,30.03,North,-999,0.0,0.0,87,0.00,,,0.00,0,weatherlink.com 1.10,2013-03-22 04:12:00,
2013-03-21 21:27:00,46.3,43.0,30.03,North,360,0.0,0.0,87,0.00,,,0.00,0,weatherlink.com 1.10,2013-03-22 04:27:00,
2013-03-21 21:42:00,46.2,43.0,30.04,North,-999,0.0,0.0,88,0.00,,,0.00,0,weatherlink.com 1.10,2013-03-22 04:42:00,
2013-03-21 21:57:00,45.9,43.0,30.04,North,360,0.0,0.0,89,0.00,,,0.00,0,weatherlink.com 1.10,2013-03-22 04:57:00,
2013-03-21 22:12:00,45.5,43.0,30.05,North,-999,0.0,0.0,90,0.00,,,0.00,0,weatherlink.com 1.10,2013-03-22 05:12:00,
2013-03-21 22:27:00,45.4,43.0,30.05,North,-999,0.0,0.0,90,0.00,,,0.00,0,weatherlink.com 1.10,2013-03-22 05:27:00,
2013-03-21 22:42:00,45.5,43.0,30.05,North,-999,0.0,0.0,89,0.00,,,0.00,0,weatherlink.com 1.10,2013-03-22 05:42:00,
2013-03-21 22:57:00,46.2,42.0,30.05,North,360,0.0,0.0,86,0.00,,,0.00,0,weatherlink.com 1.10,2013-03-22 05:57:00,
2013-03-21 23:12:00,46.7,42.0,30.05,North,360,0.0,0.0,84,0.00,,,0.00,0,weatherlink.com 1.10,2013-03-22 06:12:00,
2013-03-21 23:27:00,46.7,43.0,30.05,North,-999,0.0,0.0,85,0.00,,,0.00,0,weatherlink.com 1.10,2013-03-22 06:27:00,
2013-03-21 23:42:00,46.5,43.0,30.04,North,-999,0.0,0.0,86,0.00,,,0.00,0,weatherlink.com 1.10,2013-03-22 06:42:00,
2013-03-21 23:57:00,46.3,43.0,30.05,North,-999,0.0,0.0,88,0.00,,,0.00,0,weatherlink.com 1.10,2013-03-22 06:57:00,